Cloud_Cover
100 100 100 100 100 100 100 100 100 100 100 100 100 100 100 100 100 100 100 88 29 88 98 5 53 100 100 100 27 17 13 4 0 0 0 5 42 5 5 5 5 25 90 100 100
100 100 100 100 100 100 100 100 100 100 97 100 100 100 100 100 100 100 100 100 99 78 38 6 73 62 99 100 100 100 100 34 4 0 0 2 43 9 5 5 5 10 99 100 100
100 100 100 100 100 100 100 100 91 100 57 8 78 100 100 100 100 100 100 100 100 100 100 100 84 78 100 99 100 100 90 12 5 3 0 2 2 5 5 5 96 100 100 100 100
66 81 100 100 100 100 100 100 100 100 31 10 5 98 100 98 40 69 36 44 95 97 100 100 100 100 100 100 100 69 92 6 5 3 0 0 4 5 2 5 5 100 97 8 51
69 100 95 100 100 100 100 97 56 100 100 38 22 5 64 30 8 5 7 5 5 5 77 98 100 100 100 100 100 80 26 43 5 5 5 5 5 6 2 6 97 100 89 96 64
91 50 100 86 100 100 100 100 100 100 100 100 98 34 9 39 5 5 5 8 6 5 12 100 100 100 100 100 100 100 100 78 5 5 5 19 8 98 3 22 10 5 12 79 100
99 44 100 100 100 100 100 100 100 100 100 100 100 100 100 76 5 5 4 5 5 5 24 100 100 100 100 100 100 100 100 100 26 50 82 5 5 5 5 48 8 22 13 89 100
100 100 100 100 100 99 100 100 100 100 100 100 100 99 100 13 100 5 5 2 4 22 26 100 100 100 100 100 100 100 100 92 100 82 4 2 69 5 4 5 5 5 8 73 100
100 100 100 100 93 90 100 100 100 100 100 100 100 98 96 38 69 98 4 2 5 96 79 100 100 100 100 100 100 100 100 100 100 100 87 24 17 0 5 5 5 5 22 100 97
100 100 100 100 100 100 100 100 100 100 64 100 100 17 100 86 91 99 71 5 39 100 100 100 100 100 100 100 100 100 100 100 100 100 100 54 89 73 5 56 63 22 15 35 97
100 100 100 100 100 100 100 100 86 90 32 100 100 99 81 100 100 100 100 17 100 100 100 100 100 100 100 100 100 100 100 100 100 100 100 100 99 100 85 8 7 94 86 16 6
100 100 100 100 100 100 100 100 96 63 24 54 100 100 100 17 43 100 71 91 100 100 100 100 100 100 100 100 100 100 100 100 100 100 100 93 35 99 60 65 100 100 96 55 100
92 100 100 100 100 99 100 100 100 69 16 56 92 100 100 100 63 100 18 99 87 100 100 100 100 100 100 100 100 100 100 100 100 100 93 18 6 42 54 69 82 100 100 100 100
100 100 100 100 90 100 98 100 98 83 66 82 76 88 90 84 82 100 55 80 80 90 100 100 100 100 100 100 100 100 100 100 100 86 78 41 5 76 100 34 5 11 76 100 100
100 100 100 100 100 99 100 100 99 97 69 86 56 94 32 84 77 96 92 67 100 83 7 100 100 100 100 100 100 100 100 100 100 100 28 82 48 99 99 46 88 77 67 46 97
100 100 100 100 100 100 100 100 87 100 81 20 100 100 100 38 90 100 89 66 100 100 100 90 100 100 100 100 100 100 100 100 98 51 17 100 79 29 21 43 100 16 61 98 100
100 100 100 100 100 100 100 100 100 98 100 100 100 62 72 70 48 88 38 5 28 64 29 39 88 100 100 100 100 100 99 93 93 90 97 100 36 6 98 97 86 94 66 100 55
100 100 100 100 100 100 100 100 96 100 100 100 100 100 100 100 67 42 5 39 100 95 64 27 89 82 100 41 76 100 100 100 98 100 100 100 13 99 100 100 98 36 33 6 64
100 100 100 100 100 100 100 100 65 100 100 100 100 100 100 100 100 100 100 100 76 90 94 90 32 97 99 100 100 100 100 100 100 88 100 100 99 57 100 100 100 26 51 68 32
100 100 100 100 100 100 100 93 5 84 100 100 100 100 100 100 100 100 100 100 100 100 100 66 7 43 75 24 66 100 92 100 100 73 76 6 72 70 100 100 96 32 95 93 100
100 100 100 100 100 100 100 100 100 100 100 100 100 100 100 100 100 100 100 100 100 100 100 100 100 100 95 100 99 100 100 97 99 100 57 32 77 100 100 92 29 5 5 57 100
100 100 100 100 100 100 100 100 100 97 100 100 100 100 100 100 100 100 100 100 100 100 100 100 100 100 100 100 100 100 100 100 100 100 100 100 100 100 100 100 100 100 47 98 100
100 100 100 100 100 100 100 100 100 100 100 100 100 100 100 100 100 100 100 100 100 100 100 100 100 100 100 99 100 100 100 100 100 100 100 100 100 100 100 100 100 85 82 96 100
100 100 100 100 100 100 91 96 100 100 95 100 100 100 100 100 100 100 100 100 100 100 100 100 100 100 100 100 100 100 100 100 100 100 100 100 94 100 93 100 100 100 100 100 100
100 100 100 100 100 100 100 100 100 93 86 96 96 100 100 100 100 100 100 100 100 100 100 100 100 100 100 100 100 100 100 100 100 100 100 100 100 100 100 100 100 100 100 100 100
100 100 100 100 100 100 100 100 98 77 100 72 66 100 100 61 100 100 100 100 100 100 100 100 100 100 100 100 100 100 98 100 100 100 100 100 100 100 100 100 100 100 100 100 100
100 100 100 100 100 100 100 100 100 100 100 92 77 100 89 8 98 100 91 71 71 57 99 100 100 100 98 100 100 100 100 100 100 100 100 100 100 100 100 100 100 100 100 100 100